Find SRMSAT

NORAD ID: 37841 Int'l Des: 2011-058 Owner: SRMU Country: IN operational
LEOCIRCULAR

Current View

Loading 3D Globe...

About SRMSAT

SRMSAT (NORAD 37841) is a satellite launched Oct 12, 2011 by SRMU of IN. It operates in LEO, CIRCULAR orbit with a mass of 10.00 kg.

Upcoming Passes

Passes for default location (London). Set your location on the main map for personalized predictions.

Altitude History

Loading altitude history...

Two-Line Element Set

1 37841U 11058D 26194.45621950 .00000344 00000-0 42889-4 0 9998
2 37841 19.9713 260.4725 0011811 132.1672 338.6137 14.11580880761534
Epoch: Jul 13, 2026 • Age: 21 hours

Current Status

Altitude 861.2 km
Apogee / Perigee N/A
Velocity 7.42 km/s
Sub-Earth Point -20.04°S, 108.86°E
Launch Date Oct 12, 2011
Age 14.7 years
Type other

Technical Details

Classification Payload
Mass 10.00 kg
Dry Mass 10.00 kg
Total Mass 10.00 kg
Length 0.30 m
Diameter 0.30 m
Span 0.30 m
Shape Box
Manufacturer SRMU
Bus Type SRMSAT
Phase Status In Orbit
Owner/State SRMU/IN

Most Searched